Date,Pressure,Depth,Temperature,Conductivity,Salinity,Fluorescence,timeJ,Latitude,Longitude,Irradiance,Transmission,Density,Oxygen_ml/l,Oxygen_umol/kg
2015-04-14T06:59:00,2.000,-2.0,14.6706,4.483104,37.0666,0.3268,104,43.24,5.29,6.0343e+02,90.5859,27.6387,5.46471,237.346
2015-04-14T06:59:00,3.000,-3.0,14.4715,4.494463,37.3664,0.3193,104,43.24,5.29,4.6212e+02,90.4180,27.9115,5.65224,245.440
2015-04-14T06:59:00,4.000,-4.0,14.3450,4.500243,37.5459,0.3106,104,43.24,5.29,3.3661e+02,90.4111,28.0755,5.72235,248.455
2015-04-14T06:59:00,5.000,-5.0,14.3697,4.495950,37.4784,0.2922,104,43.24,5.29,2.7660e+02,90.2975,28.0200,5.72331,248.508
2015-04-14T06:59:00,6.000,-5.9,14.2679,4.504362,37.6578,0.2421,104,43.24,5.29,2.0488e+02,90.3819,28.1795,5.72825,248.692
2015-04-14T06:59:00,7.000,-6.9,14.2752,4.503945,37.6449,0.2285,104,43.24,5.29,1.8234e+02,90.6446,28.1691,5.72620,248.605
2015-04-14T06:59:00,8.000,-7.9,14.2272,4.508559,37.7352,0.2389,104,43.24,5.29,1.4699e+02,91.1545,28.2492,5.70167,247.524
2015-04-14T06:59:00,9.000,-8.9,14.1722,4.513778,37.8381,0.2371,104,43.24,5.29,1.3450e+02,91.5728,28.3405,5.69761,247.331
2015-04-14T06:59:00,10.000,-9.9,14.1407,4.517362,37.9020,0.2098,104,43.24,5.29,1.1083e+02,92.7031,28.3972,5.70108,247.470
2015-04-14T06:59:00,11.000,-10.9,14.1095,4.517015,37.9289,0.2057,104,43.24,5.29,1.0502e+02,93.2830,28.4249,5.74765,249.488
2015-04-14T06:59:00,12.000,-11.9,14.0376,4.514810,37.9797,0.1852,104,43.24,5.29,9.0294e+01,93.6867,28.4792,5.71191,247.928
2015-04-14T06:59:00,13.000,-12.9,13.9661,4.511993,38.0236,0.1611,104,43.24,5.29,8.3880e+01,94.5287,28.5285,5.67350,246.254
2015-04-14T06:59:00,14.000,-13.9,13.9529,4.511208,38.0285,0.1789,104,43.24,5.29,7.6343e+01,94.6800,28.5354,5.68350,246.688
2015-04-14T06:59:00,15.000,-14.9,13.9368,4.510027,38.0323,0.1735,104,43.24,5.29,6.5849e+01,94.9310,28.5423,5.65817,245.587
2015-04-14T06:59:00,16.000,-15.9,13.8883,4.506127,38.0430,0.1629,104,43.24,5.29,6.0023e+01,95.2266,28.5611,5.66120,245.718
2015-04-14T06:59:00,17.000,-16.9,13.8578,4.504829,38.0604,0.1616,104,43.24,5.29,5.6148e+01,95.3016,28.5813,5.70062,247.426
2015-04-14T06:59:00,18.000,-17.9,13.8839,4.510135,38.0827,0.1772,104,43.24,5.29,5.0967e+01,95.5216,28.5942,5.72899,248.653
2015-04-14T06:59:00,19.000,-18.9,13.8408,4.506443,38.0906,0.1944,104,43.24,5.29,4.5853e+01,95.4744,28.6092,5.72475,248.468
2015-04-14T06:59:00,20.000,-19.8,13.7669,4.498220,38.0865,0.2103,104,43.24,5.29,4.1712e+01,95.4748,28.6213,5.69829,247.321
2015-04-14T06:59:00,21.000,-20.8,13.7459,4.496293,38.0884,0.2085,104,43.24,5.29,3.8865e+01,95.4137,28.6275,5.71558,248.072
2015-04-14T06:59:00,22.000,-21.8,13.7280,4.494688,38.0902,0.2146,104,43.24,5.29,3.4838e+01,95.3854,28.6330,5.71106,247.876
2015-04-14T06:59:00,23.000,-22.8,13.7325,4.495624,38.0930,0.2250,104,43.24,5.29,3.1187e+01,95.2544,28.6351,5.70056,247.419
2015-04-14T06:59:00,24.000,-23.8,13.7414,4.497516,38.1010,0.2339,104,43.24,5.29,2.8720e+01,95.1862,28.6401,5.71441,248.019
2015-04-14T06:59:00,25.000,-24.8,13.7392,4.497837,38.1053,0.2326,104,43.24,5.29,2.5916e+01,95.1092,28.6442,5.69804,247.308
2015-04-14T06:59:00,26.000,-25.8,13.7225,4.496558,38.1094,0.2372,104,43.24,5.29,2.3290e+01,95.0469,28.6510,5.68022,246.534
2015-04-14T06:59:00,27.000,-26.8,13.6861,4.492785,38.1097,0.2562,104,43.24,5.29,2.1183e+01,95.0592,28.6587,5.69463,247.160
2015-04-14T06:59:00,28.000,-27.8,13.6626,4.490162,38.1079,0.2568,104,43.24,5.29,1.9191e+01,94.9703,28.6622,5.70330,247.537
2015-04-14T06:59:00,29.000,-28.8,13.6286,4.486302,38.1050,0.2477,104,43.24,5.29,1.7371e+01,95.0203,28.6670,5.68828,246.886
2015-04-14T06:59:00,30.000,-29.7,13.5955,4.482535,38.1019,0.2508,104,43.24,5.29,1.5647e+01,95.0827,28.6715,5.66793,246.004
2015-04-14T06:59:00,31.000,-30.8,13.5638,4.478798,38.0977,0.2526,104,43.24,5.29,1.4248e+01,95.0852,28.6749,5.66446,245.854
2015-04-14T06:59:00,32.000,-31.7,13.5664,4.479544,38.1011,0.2758,104,43.24,5.29,1.2818e+01,95.0278,28.6775,5.64638,245.069
2015-04-14T06:59:00,33.000,-32.7,13.5749,4.481130,38.1066,0.2750,104,43.24,5.29,1.1526e+01,94.9509,28.6805,5.64000,244.791
2015-04-14T06:59:00,34.000,-33.7,13.5553,4.479144,38.1069,0.2774,104,43.24,5.29,1.0357e+01,94.8160,28.6848,5.62227,244.022
2015-04-14T06:59:00,35.000,-34.7,13.5237,4.475528,38.1039,0.2979,104,43.24,5.29,9.3413e+00,94.7721,28.6890,5.60273,243.174
2015-04-14T06:59:00,36.000,-35.7,13.5055,4.473494,38.1022,0.2998,104,43.24,5.29,8.4531e+00,94.8242,28.6916,5.61689,243.790
2015-04-14T06:59:00,37.000,-36.7,13.4942,4.472408,38.1024,0.3133,104,43.24,5.29,7.5634e+00,94.9054,28.6944,5.60206,243.146
2015-04-14T06:59:00,38.000,-37.7,13.4871,4.471835,38.1033,0.3566,104,43.24,5.29,6.8189e+00,94.8243,28.6968,5.59655,242.907
2015-04-14T06:59:00,39.000,-38.7,13.4794,4.471094,38.1033,0.3250,104,43.24,5.29,6.1112e+00,94.8702,28.6986,5.60777,243.394
2015-04-14T06:59:00,40.000,-39.7,13.4735,4.470537,38.1030,0.2780,104,43.24,5.29,5.4276e+00,94.8296,28.6999,5.61098,243.533
2015-04-14T06:59:00,41.000,-40.7,13.4653,4.469692,38.1026,0.2752,104,43.24,5.29,4.9335e+00,94.7927,28.7014,5.60107,243.103
2015-04-14T06:59:00,42.000,-41.7,13.4582,4.468975,38.1023,0.2660,104,43.24,5.29,4.4207e+00,94.7633,28.7028,5.59962,243.041
2015-04-14T06:59:00,43.000,-42.6,13.4468,4.467734,38.1014,0.2517,104,43.24,5.29,3.9126e+00,94.6940,28.7046,5.58107,242.236
2015-04-14T06:59:00,44.000,-43.6,13.4370,4.466723,38.1011,0.2568,104,43.24,5.29,3.5627e+00,94.6981,28.7064,5.58789,242.532
2015-04-14T06:59:00,45.000,-44.6,13.4317,4.466235,38.1011,0.2538,104,43.24,5.29,3.1891e+00,94.7523,28.7077,5.56822,241.679
2015-04-14T06:59:00,46.000,-45.6,13.4275,4.465914,38.1016,0.2408,104,43.24,5.29,2.8494e+00,94.6563,28.7092,5.53816,240.373
2015-04-14T06:59:00,47.000,-46.6,13.4246,4.465729,38.1021,0.2401,104,43.24,5.29,2.5803e+00,94.6196,28.7103,5.52035,239.601
2015-04-14T06:59:00,48.000,-47.6,13.4170,4.465151,38.1037,0.2345,104,43.24,5.29,2.3119e+00,94.6781,28.7132,5.50436,238.907
2015-04-14T06:59:00,49.000,-48.6,13.4146,4.465075,38.1046,0.2514,104,43.24,5.29,2.0877e+00,94.8159,28.7147,5.44833,236.474
2015-04-14T06:59:00,50.000,-49.6,13.4104,4.464965,38.1073,0.2820,104,43.24,5.29,1.8805e+00,94.7995,28.7177,5.43646,235.959
2015-04-14T06:59:00,51.000,-50.6,13.4124,4.465468,38.1093,0.2418,104,43.24,5.29,1.7042e+00,94.9072,28.7192,5.39893,234.329
2015-04-14T06:59:00,52.000,-51.6,13.4128,4.465791,38.1114,0.2115,104,43.24,5.29,1.5397e+00,95.0762,28.7208,5.39972,234.363
2015-04-14T06:59:00,53.000,-52.6,13.4131,4.466243,38.1149,0.1785,104,43.24,5.29,1.4082e+00,95.0840,28.7236,5.33494,231.551
2015-04-14T06:59:00,54.000,-53.6,13.4156,4.467080,38.1198,0.1534,104,43.24,5.29,1.2829e+00,95.1365,28.7270,5.30360,230.190
2015-04-14T06:59:00,55.000,-54.5,13.4154,4.467217,38.1208,0.1232,104,43.24,5.29,1.1680e+00,94.4528,28.7279,5.29528,229.829
2015-04-14T06:59:00,56.000,-55.6,13.4153,4.467274,38.1210,0.1197,104,43.24,5.29,1.0636e+00,93.3383,28.7281,5.29927,230.002
2015-04-14T06:59:00,57.000,-56.5,13.4172,4.467206,38.1179,0.1350,104,43.24,5.29,9.4218e-01,93.0898,28.7254,5.33011,231.341
